EW8153 Weather Reports


time (UTC)temp
C
wind
direction
speed
KPH
gust
KPH
rain 1hr
cm
rain 24hr
cm
rain mn
cm
humidity
%
barometer
mb
20260510113524 11 28 4.8 16.1 0.00 0.00 0.00 73 1015.4
20260510113042 11 57 4.8 16.1 0.00 0.00 0.00 73 1015.4
20260510112525 11 9 4.8 16.1 0.00 0.00 0.00 74 1015.6
20260510112027 11 225 4.8 19.3 0.00 0.00 0.00 74 1015.5
20260510111536 11 342 4.8 19.3 0.00 0.00 0.00 74 1015.6
20260510111026 11 59 4.8 12.9 0.00 0.00 0.00 74 1015.5
20260510110524 11 334 4.8 17.7 0.00 0.00 0.00 75 1015.5
20260510110043 11 48 4.8 17.7 0.00 0.00 0.00 75 1015.4
20260510105525 11 300 4.8 19.3 0.00 0.00 0.00 76 1015.5
20260510105026 11 46 4.8 19.3 0.00 0.00 0.00 76 1015.5
20260510104541 11 346 4.8 17.7 0.00 0.00 0.00 76 1015.5
20260510104024 11 111 4.8 19.3 0.00 0.00 0.00 75 1015.5
20260510103524 11 25 6.4 19.3 0.00 0.00 0.00 76 1015.6
20260510103042 11 187 4.8 22.5 0.00 0.00 0.00 76 1015.5
20260510102524 11 38 4.8 22.5 0.00 0.00 0.00 76 1015.6
20260510102026 11 137 4.8 19.3 0.00 0.00 0.00 77 1015.6
20260510101539 11 235 4.8 19.3 0.00 0.00 0.00 77 1015.6
20260510101024 11 72 3.2 17.7 0.00 0.00 0.00 78 1015.6
20260510100527 11 319 4.8 24.1 0.00 0.00 0.00 77 1015.6
20260510100043 11 93 4.8 24.1 0.00 0.00 0.00 79 1015.6
20260510095525 11 83 3.2 16.1 0.00 0.00 0.00 79 1015.6
20260510095023 11 346 3.2 12.9 0.00 0.00 0.00 80 1015.6
20260510094541 11 137 3.2 14.5 0.00 0.00 0.00 80 1015.6
20260510094026 11 40 3.2 14.5 0.00 0.00 0.00 80 1015.7
20260510093525 11 81 4.8 14.5 0.00 0.00 0.00 79 1015.9
20260510093039 11 257 4.8 16.1 0.00 0.00 0.00 79 1015.8
20260510092526 11 120 3.2 17.7 0.00 0.00 0.00 79 1015.8
20260510092027 11 18 3.2 17.7 0.00 0.00 0.00 79 1015.8
20260510091539 11 36 3.2 22.5 0.00 0.00 0.00 80 1015.9
20260510091027 11 123 4.8 22.5 0.00 0.00 0.00 79 1015.9
20260510090525 11 334 4.8 17.7 0.00 0.00 0.00 79 1015.9
20260510090039 11 314 4.8 17.7 0.00 0.00 0.00 79 1015.9
20260510085524 11 57 4.8 16.1 0.00 0.00 0.00 80 1015.8
20260510085026 11 33 4.8 20.9 0.00 0.00 0.00 81 1015.7
20260510084538 11 328 4.8 20.9 0.00 0.00 0.00 81 1015.8
20260510084024 11 265 4.8 20.9 0.00 0.00 0.00 82 1015.8
20260510083527 11 47 3.2 14.5 0.00 0.00 0.00 82 1015.8
20260510083037 11 305 4.8 17.7 0.00 0.00 0.00 83 1015.9
20260510082524 11 51 3.2 17.7 0.00 0.00 0.00 83 1015.8
20260510082024 10 20 3.2 14.5 0.00 0.00 0.00 83 1015.9
20260510081548 10 22 3.2 14.5 0.00 0.00 0.00 83 1016.0
20260510081024 10 61 3.2 14.5 0.00 0.00 0.00 83 1016.0
20260510080524 10 282 3.2 14.5 0.00 0.00 0.00 83 1016.0
20260510080042 10 63 3.2 12.9 0.00 0.00 0.00 83 1016.1
20260510075524 10 142 3.2 12.9 0.00 0.00 0.00 83 1016.1
20260510075023 10 309 3.2 12.9 0.00 0.00 0.00 84 1016.1
20260510074540 10 42 3.2 12.9 0.00 0.00 0.00 84 1016.1
20260510074115 9 31 1.6 12.9 0.00 0.00 0.00 84 1016.1
20260510073525 9 64 3.2 11.3 0.00 0.00 0.00 84 1016.2
20260510073051 9 38 3.2 11.3 0.00 0.00 0.00 84 1016.2
20260510072525 9 59 3.2 17.7 0.00 0.00 0.00 85 1016.2
20260510072024 9 65 3.2 17.7 0.00 0.00 0.00 85 1016.2
20260510071537 9 34 3.2 11.3 0.00 0.00 0.00 85 1016.2
20260510071024 9 103 1.6 9.7 0.00 0.00 0.00 85 1016.2
20260510070524 9 51 3.2 8.0 0.00 0.00 0.00 86 1016.2
20260510070036 9 45 1.6 11.3 0.00 0.00 0.00 86 1016.3
20260510065524 9 9 3.2 11.3 0.00 0.00 0.00 86 1016.2
20260510065023 9 51 1.6 11.3 0.00 0.00 0.00 86 1016.2
20260510064544 9 59 3.2 11.3 0.00 0.00 0.00 86 1016.3
20260510064023 8 34 3.2 16.1 0.00 0.00 0.00 86 1016.3
20260510063524 8 106 3.2 16.1 0.00 0.00 0.00 87 1016.3
20260510063040 8 153 3.2 12.9 0.00 0.00 0.00 87 1016.2
20260510062523 8 75 3.2 14.5 0.00 0.00 0.00 87 1016.2
20260510062023 8 26 3.2 14.5 0.00 0.00 0.00 87 1016.3
20260510061540 8 325 3.2 12.9 0.00 0.00 0.00 88 1016.4
20260510061025 8 44 3.2 14.5 0.00 0.00 0.00 88 1016.2
20260510060524 8 25 3.2 14.5 0.00 0.00 0.00 88 1016.2
20260510060039 8 74 3.2 16.1 0.00 0.00 0.00 88 1016.1
20260510055524 8 48 3.2 16.1 0.00 0.00 0.00 88 1016.2
20260510055024 8 34 3.2 16.1 0.00 0.00 0.00 88 1016.1
20260510054537 8 137 3.2 14.5 0.00 0.00 0.00 88 1016.1
20260510054026 8 80 3.2 12.9 0.00 0.00 0.00 88 1016.0
20260510053523 8 107 3.2 9.7 0.00 0.00 0.00 88 1015.9
20260510053038 8 19 3.2 14.5 0.00 0.00 0.00 88 1015.9
20260510052528 8 0 3.2 14.5 0.00 0.00 0.00 88 1016.1
20260510052024 8 70 3.2 14.5 0.00 0.00 0.00 88 1016.0
20260510051542 8 9 3.2 12.9 0.00 0.00 0.00 88 1016.0
20260510051024 8 80 3.2 16.1 0.00 0.00 0.00 88 1015.9
20260510050526 8 0 4.8 16.1 0.00 0.00 0.00 88 1016.0
20260510050043 8 51 4.8 14.5 0.00 0.00 0.00 89 1015.9
20260510045525 8 265 4.8 14.5 0.00 0.00 0.00 89 1016.0
20260510045025 8 16 4.8 14.5 0.00 0.00 0.00 89 1015.9
20260510044548 8 51 3.2 14.5 0.00 0.00 0.00 89 1015.9
20260510044023 8 48 4.8 14.5 0.00 0.00 0.00 89 1016.0
20260510043524 8 178 3.2 12.9 0.00 0.00 0.00 89 1016.1
20260510043038 8 72 3.2 17.7 0.00 0.00 0.00 89 1015.9
20260510042524 8 257 3.2 17.7 0.00 0.00 0.00 89 1016.0
20260510042024 8 101 3.2 12.9 0.00 0.00 0.00 89 1016.0
20260510041537 8 59 3.2 12.9 0.00 0.00 0.00 89 1016.0
20260510041028 8 298 3.2 16.1 0.00 0.00 0.00 89 1016.0
20260510040524 9 17 3.2 16.1 0.00 0.00 0.00 88 1016.0
20260510040039 9 221 3.2 16.1 0.00 0.00 0.00 88 1016.0
20260510035524 9 59 3.2 14.5 0.00 0.00 0.00 88 1016.0
20260510035024 9 88 3.2 14.5 0.00 0.00 0.00 88 1016.1
20260510034537 9 93 3.2 14.5 0.00 0.00 0.00 88 1016.1
20260510034024 9 57 3.2 14.5 0.00 0.00 0.00 88 1016.2
20260510033523 9 321 1.6 14.5 0.00 0.00 0.00 87 1016.2
20260510033039 10 338 3.2 14.5 0.00 0.00 0.00 87 1016.2
20260510032527 10 247 3.2 16.1 0.00 0.00 0.00 87 1016.2
20260510032024 10 78 3.2 16.1 0.00 0.00 0.00 87 1016.2
20260510031550 10 55 3.2 17.7 0.00 0.00 0.00 86 1016.2
20260510031024 10 9 3.2 17.7 0.00 0.00 0.00 86 1016.1
20260510030523 10 330 3.2 12.9 0.00 0.00 0.00 85 1016.1
20260510030039 10 43 3.2 12.9 0.00 0.00 0.00 84 1016.0
20260510025524 10 41 3.2 9.7 0.00 0.00 0.00 83 1016.0
20260510025023 10 97 3.2 14.5 0.00 0.00 0.00 83 1016.2
20260510024539 10 34 3.2 14.5 0.00 0.00 0.00 82 1016.1
20260510024024 10 338 3.2 14.5 0.00 0.00 0.00 82 1016.2
20260510023524 10 38 4.8 14.5 0.00 0.00 0.00 81 1016.1
20260510023036 10 57 3.2 14.5 0.00 0.00 0.00 81 1016.1
20260510022524 10 71 3.2 14.5 0.00 0.00 0.00 81 1016.1
20260510022024 10 54 3.2 16.1 0.00 0.00 0.00 81 1016.2
20260510021540 10 336 3.2 16.1 0.00 0.00 0.00 80 1016.2
20260510021023 10 43 1.6 12.9 0.00 0.00 0.00 80 1016.2
20260510020524 10 105 1.6 14.5 0.00 0.00 0.00 79 1016.4
20260510020038 10 19 3.2 14.5 0.00 0.00 0.00 78 1016.4
20260510015524 10 59 3.2 14.5 0.00 0.00 0.00 78 1016.4
20260510015026 10 317 3.2 12.9 0.00 0.00 0.00 77 1016.5
20260510014540 10 110 3.2 12.9 0.00 0.00 0.00 77 1016.5
20260510014027 10 61 3.2 14.5 0.00 0.00 0.00 77 1016.5
20260510013524 10 13 1.6 14.5 0.00 0.00 0.00 76 1016.4
20260510013038 10 31 3.2 12.9 0.00 0.00 0.00 76 1016.5
20260510012523 10 20 3.2 12.9 0.00 0.00 0.00 75 1016.5
20260510012125 10 93 4.8 17.7 0.00 0.00 0.00 75 1016.5
20260510011538 10 9 3.2 17.7 0.00 0.00 0.00 75 1016.5
20260510011023 10 99 4.8 17.7 0.00 0.00 0.00 74 1016.5
20260510010524 10 110 3.2 12.9 0.00 0.00 0.00 74 1016.4
20260510010038 10 54 4.8 19.3 0.00 0.00 0.00 73 1016.3
20260510005524 11 265 3.2 19.3 0.00 0.00 0.00 72 1016.4
20260510005024 11 26 3.2 19.3 0.00 0.00 0.00 72 1016.5
20260510004536 11 38 3.2 20.9 0.00 0.00 0.00 71 1016.4
20260510004024 11 42 3.2 20.9 0.00 0.00 0.00 71 1016.5
20260510003524 11 83 4.8 20.9 0.00 0.00 0.00 70 1016.5
20260510003036 11 273 4.8 14.5 0.00 0.00 0.00 69 1016.5
20260510002523 11 61 4.8 14.5 0.00 0.00 0.00 69 1016.5
20260510002023 11 63 4.8 14.5 0.00 0.00 0.00 69 1016.4
20260510001539 11 21 3.2 12.9 0.00 0.00 0.00 68 1016.5
20260510001026 11 51 3.2 12.9 0.00 0.00 0.00 68 1016.5
20260510000524 11 51 3.2 12.9 0.00 0.00 0.00 68 1016.5
20260510000040 11 93 3.2 16.1 0.00 0.00 0.00 68 1016.6
20260509235523 11 43 3.2 16.1 0.00 0.00 0.00 68 1016.7
20260509235024 11 11 3.2 11.3 0.00 0.00 0.00 68 1016.6
20260509234539 11 47 4.8 14.5 0.00 0.00 0.00 68 1016.7
20260509234024 11 244 3.2 14.5 0.00 0.00 0.00 67 1016.8
20260509233526 11 90 3.2 14.5 0.00 0.00 0.00 67 1016.7
20260509233035 11 51 3.2 14.5 0.00 0.00 0.00 66 1016.7
20260509232523 11 9 4.8 14.5 0.00 0.00 0.00 66 1016.7
20260509232024 11 59 3.2 14.5 0.00 0.00 0.00 66 1016.7
20260509231537 11 80 3.2 14.5 0.00 0.00 0.00 65 1016.8
20260509231023 11 24 4.8 14.5 0.00 0.00 0.00 64 1016.7
20260509230524 11 19 3.2 14.5 0.00 0.00 0.00 64 1016.8
20260509230036 11 40 4.8 14.5 0.00 0.00 0.00 63 1016.9
20260509225524 11 36 3.2 12.9 0.00 0.00 0.00 63 1016.8
20260509225025 11 83 3.2 12.9 0.00 0.00 0.00 62 1016.9
20260509224550 11 26 1.6 14.5 0.00 0.00 0.00 61 1016.7
20260509224024 11 30 3.2 14.5 0.00 0.00 0.00 60 1016.7
20260509223524 11 257 3.2 12.9 0.00 0.00 0.00 60 1016.7
20260509223039 11 338 3.2 12.9 0.00 0.00 0.00 59 1016.7
20260509222526 11 47 4.8 16.1 0.00 0.00 0.00 59 1016.7
20260509222023 11 26 3.2 16.1 0.00 0.00 0.00 58 1016.8
20260509221547 11 23 3.2 12.9 0.00 0.00 0.00 58 1016.7
20260509221027 11 178 3.2 16.1 0.00 0.00 0.00 57 1016.7
20260509220523 11 59 3.2 16.1 0.00 0.00 0.00 57 1016.7
20260509220039 11 40 3.2 14.5 0.00 0.00 0.00 57 1016.7
20260509215524 11 46 1.6 14.5 0.00 0.00 0.00 57 1016.8
20260509215022 11 26 3.2 11.3 0.00 0.00 0.00 57 1016.7
20260509214537 11 255 3.2 12.9 0.00 0.00 0.00 56 1016.8
20260509214023 11 72 1.6 16.1 0.00 0.00 0.00 56 1016.8
20260509213524 11 71 3.2 16.1 0.00 0.00 0.00 56 1016.8
20260509213043 11 48 3.2 14.5 0.00 0.00 0.00 57 1016.8
20260509212524 11 63 3.2 14.5 0.00 0.00 0.00 56 1016.8
20260509212023 11 9 3.2 19.3 0.00 0.00 0.00 57 1016.7
20260509211539 11 66 3.2 19.3 0.00 0.00 0.00 57 1016.7
20260509211023 11 54 4.8 16.1 0.00 0.00 0.00 57 1016.7
20260509210526 11 178 3.2 11.3 0.00 0.00 0.00 57 1016.7
20260509210038 11 346 3.2 16.1 0.00 0.00 0.00 58 1016.7
20260509205523 11 104 3.2 16.1 0.00 0.00 0.00 58 1016.6
20260509205023 11 233 3.2 12.9 0.00 0.00 0.00 58 1016.6
20260509204537 11 63 3.2 16.1 0.00 0.00 0.00 59 1016.6
20260509204022 11 133 3.2 16.1 0.00 0.00 0.00 59 1016.4
20260509203522 11 51 3.2 12.9 0.00 0.00 0.00 60 1016.3
20260509203036 11 334 3.2 11.3 0.00 0.00 0.00 60 1016.4
20260509202524 11 239 3.2 11.3 0.00 0.00 0.00 60 1016.4
20260509202026 11 334 3.2 11.3 0.00 0.00 0.00 61 1016.3
20260509201546 12 51 1.6 11.3 0.00 0.00 0.00 60 1016.2
20260509201023 12 61 3.2 11.3 0.00 0.00 0.00 60 1016.1
20260509200523 12 338 3.2 12.9 0.00 0.00 0.00 60 1016.1
20260509200050 12 72 3.2 12.9 0.00 0.00 0.00 60 1016.0
20260509195525 12 9 3.2 8.0 0.00 0.00 0.00 60 1016.1
20260509195023 12 200 3.2 9.7 0.00 0.00 0.00 59 1016.1
20260509194539 12 319 3.2 9.7 0.00 0.00 0.00 58 1016.2
20260509194023 12 292 1.6 9.7 0.00 0.00 0.00 57 1016.1
20260509193522 13 74 3.2 9.7 0.00 0.00 0.00 57 1016.2
20260509193037 13 329 3.2 9.7 0.00 0.00 0.00 56 1016.2
20260509192523 13 30 3.2 9.7 0.00 0.00 0.00 56 1016.1
20260509192023 13 68 1.6 17.7 0.00 0.00 0.00 56 1016.1
20260509191537 13 76 3.2 17.7 0.00 0.00 0.00 55 1016.2
20260509191024 13 82 4.8 17.7 0.00 0.00 0.00 54 1016.2
20260509190524 14 252 3.2 14.5 0.00 0.00 0.00 54 1016.2
20260509190050 14 141 3.2 12.9 0.00 0.00 0.00 53 1016.1
20260509185524 14 298 3.2 12.9 0.00 0.00 0.00 54 1016.2
20260509185025 15 282 3.2 12.9 0.00 0.00 0.00 54 1016.1
20260509184539 15 239 3.2 9.7 0.00 0.00 0.00 56 1016.2
20260509184023 15 338 1.6 11.3 0.00 0.00 0.00 55 1016.2
20260509183523 15 76 3.2 16.1 0.00 0.00 0.00 55 1016.1
20260509183040 15 273 3.2 16.1 0.00 0.00 0.00 55 1015.9
20260509182523 16 38 3.2 16.1 0.00 0.00 0.00 55 1015.8
20260509182023 16 103 4.8 16.1 0.00 0.00 0.00 56 1015.7
20260509181539 16 51 3.2 12.9 0.00 0.00 0.00 57 1015.8
20260509181023 16 51 3.2 14.5 0.00 0.00 0.00 56 1015.8
20260509180522 16 74 3.2 14.5 0.00 0.00 0.00 55 1015.8
20260509180036 16 334 3.2 14.5 0.00 0.00 0.00 55 1015.8
20260509175523 17 301 3.2 14.5 0.00 0.00 0.00 55 1015.8
20260509175024 17 126 3.2 16.1 0.00 0.00 0.00 55 1015.8
20260509174537 17 117 3.2 16.1 0.00 0.00 0.00 55 1015.8
20260509174022 17 76 3.2 16.1 0.00 0.00 0.00 53 1015.9
20260509173523 17 162 1.6 11.3 0.00 0.00 0.00 54 1015.7
20260509173039 17 42 3.2 11.3 0.00 0.00 0.00 53 1015.6
20260509172524 17 273 3.2 11.3 0.00 0.00 0.00 53 1015.7
20260509172024 18 68 3.2 14.5 0.00 0.00 0.00 53 1015.6
20260509171543 18 98 3.2 14.5 0.00 0.00 0.00 52 1015.6
20260509171023 18 45 3.2 17.7 0.00 0.00 0.00 52 1015.6
20260509170526 18 57 4.8 17.7 0.00 0.00 0.00 50 1015.6
20260509170038 19 9 3.2 16.1 0.00 0.00 0.00 49 1015.6
20260509165525 20 103 3.2 16.1 0.00 0.00 0.00 48 1015.6
20260509165026 20 45 3.2 14.5 0.00 0.00 0.00 48 1015.7
20260509164547 20 68 1.6 16.1 0.00 0.00 0.00 46 1015.6
20260509164026 20 83 4.8 16.1 0.00 0.00 0.00 43 1015.6
20260509163527 20 68 4.8 14.5 0.00 0.00 0.00 43 1015.6
20260509163039 20 90 3.2 14.5 0.00 0.00 0.00 43 1015.6
20260509162524 20 51 3.2 16.1 0.00 0.00 0.00 43 1015.6
20260509162023 20 51 3.2 16.1 0.00 0.00 0.00 43 1015.6
20260509161541 20 298 4.8 16.1 0.00 0.00 0.00 44 1015.6
20260509161024 20 76 3.2 20.9 0.00 0.00 0.00 44 1015.7
20260509160523 20 9 8.0 20.9 0.00 0.00 0.00 43 1015.6
20260509160039 20 105 6.4 19.3 0.00 0.00 0.00 43 1015.6
20260509155523 20 120 6.4 19.3 0.00 0.00 0.00 42 1015.6
20260509155023 20 49 8.0 19.3 0.00 0.00 0.00 43 1015.6
20260509154538 21 74 8.0 19.3 0.00 0.00 0.00 43 1015.6
20260509154024 21 92 4.8 22.5 0.00 0.00 0.00 43 1015.7
20260509153523 20 121 8.0 22.5 0.00 0.00 0.00 42 1015.8
20260509153035 21 79 6.4 19.3 0.00 0.00 0.00 43 1015.7
20260509152523 21 106 8.0 19.3 0.00 0.00 0.00 42 1015.9
20260509152023 21 47 6.4 24.1 0.00 0.00 0.00 44 1016.0
20260509151543 21 107 8.0 24.1 0.00 0.00 0.00 44 1016.1
20260509151023 21 106 6.4 19.3 0.00 0.00 0.00 43 1016.3
20260509150523 21 99 8.0 20.9 0.00 0.00 0.00 44 1016.2
20260509150037 21 57 6.4 20.9 0.00 0.00 0.00 43 1016.2
20260509145523 21 108 9.7 20.9 0.00 0.00 0.00 43 1016.3
20260509145023 21 83 9.7 20.9 0.00 0.00 0.00 44 1016.3
20260509144539 21 134 8.0 19.3 0.00 0.00 0.00 44 1016.4
20260509144023 21 360 9.7 19.3 0.00 0.00 0.00 44 1016.4
20260509143523 21 101 8.0 22.5 0.00 0.00 0.00 43 1016.4
20260509143038 21 51 9.7 22.5 0.00 0.00 0.00 43 1016.2
20260509142523 21 139 4.8 19.3 0.00 0.00 0.00 45 1016.3
20260509142024 21 72 6.4 19.3 0.00 0.00 0.00 45 1016.3
20260509141537 21 149 8.0 22.5 0.00 0.00 0.00 45 1016.2
20260509141025 21 93 3.2 22.5 0.00 0.00 0.00 45 1016.1
20260509140522 21 29 4.8 22.5 0.00 0.00 0.00 44 1016.0
20260509140037 21 128 8.0 22.5 0.00 0.00 0.00 43 1016.0
20260509135523 21 93 11.3 20.9 0.00 0.00 0.00 43 1016.0
20260509135024 21 142 11.3 20.9 0.00 0.00 0.00 42 1016.0
20260509134557 21 98 8.0 20.9 0.00 0.00 0.00 43 1015.9
20260509134022 21 87 8.0 20.9 0.00 0.00 0.00 42 1015.9
20260509133522 21 137 8.0 22.5 0.00 0.00 0.00 42 1016.1
20260509133038 21 104 6.4 22.5 0.00 0.00 0.00 43 1016.1
20260509132523 21 80 8.0 22.5 0.00 0.00 0.00 42 1016.0
20260509132023 21 110 9.7 22.5 0.00 0.00 0.00 42 1016.2
20260509131548 21 74 6.4 20.9 0.00 0.00 0.00 43 1016.3
20260509131023 21 55 4.8 20.9 0.00 0.00 0.00 45 1016.4
20260509130523 21 83 8.0 20.9 0.00 0.00 0.00 43 1016.5
20260509130041 21 71 4.8 20.9 0.00 0.00 0.00 41 1016.3
20260509125523 21 30 3.2 14.5 0.00 0.00 0.00 43 1016.4
20260509125023 21 71 3.2 22.5 0.00 0.00 0.00 45 1016.4
20260509124536 21 51 3.2 22.5 0.00 0.00 0.00 46 1016.2
20260509124023 21 78 6.4 22.5 0.00 0.00 0.00 43 1016.2
20260509123523 21 56 8.0 19.3 0.00 0.00 0.00 44 1016.3
20260509123036 21 79 3.2 19.3 0.00 0.00 0.00 45 1016.4
20260509122525 21 84 6.4 20.9 0.00 0.00 0.00 45 1016.5
20260509122023 21 138 4.8 20.9 0.00 0.00 0.00 46 1016.5
20260509121539 21 309 6.4 17.7 0.00 0.00 0.00 46 1016.6
20260509121023 21 265 3.2 17.7 0.00 0.00 0.00 49 1016.6
20260509120523 20 108 3.2 22.5 0.00 0.00 0.00 48 1016.6
20260509120038 20 11 6.4 22.5 0.00 0.00 0.00 47 1016.7
20260509115523 20 313 3.2 16.1 0.00 0.00 0.00 47 1016.7
20260509115027 20 41 3.2 22.5 0.00 0.00 0.00 48 1016.8
20260509114543 20 140 8.0 22.5 0.00 0.00 0.00 47 1016.7
20260509114023 20 92 9.7 22.5 0.00 0.00 0.00 46 1016.8